Location: ?????????
(54.7630°N, 39.4991°E)
Time: 06:36:24
(UTC+00:00)

Resurs 1-4 Rocket - Pass Details

Date: 14 April 2026
Orbit: 798 x 812 km, 98.8° (Epoch: 12 May)

Event Time Altitude Azimuth Distance (km) Brightness Sun altitude
Rises 22:56:02 0° 24° (NNE) 3,348 6.8 -22.6°
Reaches altitude 10° 22:58:59 10° 40° (NE) 2,410 5.6 -22.4°
Maximum altitude 23:02:58 21° 89° (E) 1,749 4.1 -22.2°
Drops below altitude 10° 23:06:57 10° 138° (SE) 2,392 4.4 -21.9°
Enters shadow 23:07:00 10° 138° (SE) 2,409 4.4 -21.9°
